Regional Weather Roundup
Issued by NWS Little Rock, AR

Home | Current Version | Previous Version | Graphics & Text | Print | Product List | Glossary On
Versions: 1 2 3 4 5 6 7 8 9 10 11 12 13 14 15 16 17 18 19 20 21 22 23 24 25 26 27 28 29 30 31 32 33 34 35 36 37 38 39 40 41 42 43 44 45 46 47 48 49 50
084
ASUS44 KLZK 292205
RWRLZK

WEATHER ROUNDUP FOR ARKANSAS
NATIONAL WEATHER SERVICE LITTLE ROCK AR
500 PM CDT SAT APR 29 2017

NOTE: "FAIR" INDICATES FEW OR NO CLOUDS BELOW 12,000 FEET WITH NO
SIGNIFICANT WEATHER AND/OR OBSTRUCTIONS TO VISIBILITY.

ARZ001-003-010-029-292300-
NORTHWEST ARKANSAS

CITY           SKY/WX    TMP DP  RH WIND       PRES   REMARKS
FAYETTEVILLE   CLOUDY    66  66 100 VRB3      29.64S
FORT SMITH     CLOUDY    74  68  81 SE7       29.57F
HARRISON       TSTM      64  64 100 S12G26    29.70F FOG
BENTONVILLE    CLOUDY    64  63  94 CALM      29.69R THUNDER
ROGERS         TSTM      65  64  97 E9        29.69R FOG
SILOAM SPGS    CLOUDY    66  63  88 E6        29.64F
HIGHFILL       CLOUDY    66  65  96 E8        29.67R THUNDER
SPRINGDALE     CLOUDY    66  66 100 E9        29.69R FOG
$$

ARZ004-005-016-292300-
NORTH CENTRAL ARKANSAS

CITY           SKY/WX    TMP DP  RH WIND       PRES   REMARKS
BATESVILLE     PTSUNNY   84  68  58 SE21G29   29.71R HX  87
FLIPPIN        CLOUDY    64  61  88 NE5       29.68F THUNDER
MTN HOME       TSTM      64  63  96 NE6       29.71R
$$

ARZ040-041-292300-
WEST CENTRAL ARKANSAS

CITY           SKY/WX    TMP DP  RH WIND       PRES   REMARKS
MENA           CLOUDY    79  77  94 SE7G20    29.63S
$$

ARZ009-017-025-026-028-292300-
NORTHEAST ARKANSAS

CITY           SKY/WX    TMP DP  RH WIND       PRES   REMARKS
JONESBORO      MOSUNNY   86  68  54 S25G35    29.73F HX  89
NEWPORT        SUNNY     85  70  60 S30         N/A  HX  89
WALNUT RIDGE   MOSUNNY   84  70  61 S20G31    29.72F HX  88
BLYTHEVILLE    MOSUNNY   86  69  56 S22G31    29.80S HX  90
$$

ARZ022-023-033-042-044-292300-
CENTRAL ARKANSAS

CITY           SKY/WX    TMP DP  RH WIND       PRES   REMARKS
LITTLE ROCK    CLOUDY    83  72  69 S18G25    29.67F HX  88
N LITTLE ROCK    N/A     83  72  69 S13G26    29.66F HX  88
JACKSONVILLE   CLOUDY    85  73  68 SE14      29.67F HX  91
CONWAY           N/A     82  72  69 S20G26    29.63F HX  87
SEARCY         PTSUNNY   85  73  67 S17G30    29.70F HX  91
HOT SPRINGS    CLOUDY    80  69  69 SE15G22   29.64F
RUSSELLVILLE   CLOUDY    80  71  74 S8        29.64S
CLINTON        PTSUNNY   81  72  74 S9G20     29.66F HAZE
$$

ARZ036-292300-
EAST ARKANSAS

CITY           SKY/WX    TMP DP  RH WIND       PRES   REMARKS
WEST MEMPHIS   MOSUNNY   87  71  58 S21G31    29.76F HX  93
$$

ARZ050-053-066-070-073-292300-
SOUTHWEST ARKANSAS

CITY           SKY/WX    TMP DP  RH WIND       PRES   REMARKS
ARKADELPHIA    FAIR      79  71  76 S8        29.65F
CAMDEN         LGT RAIN  75  57  53 SE20G37   29.58F
TEXARKANA      CLOUDY    75  65  70 S22G36    29.64S THUNDER
EL DORADO      LGT RAIN  71  67  87 S18G30    29.70F
DE QUEEN       PTSUNNY   79  71  76 S17G28    29.57F
$$

ARZ056-057-069-292300-
SOUTHEAST ARKANSAS

CITY           SKY/WX    TMP DP  RH WIND       PRES   REMARKS
PINE BLUFF     CLOUDY    83  71  67 S20G29    29.70F HX  87
STUTTGART      CLOUDY   N/A N/A N/A SE24      29.71F
MONTICELLO     LGT RAIN  82  71  69 SE8       29.70F HX  86

$$






USA.gov is the U.S. government's official web portal to all federal, state and local government web resources and services.